Location: Newark
(54.0500°N, 12.8333°E)
Time: 00:59:31
(UTC+00:00)

Transit 4A - Pass Details

Date: 01 February 2020
Orbit: 872 x 973 km, 66.8° (Epoch: 20 February)

Event Time Altitude Azimuth Distance (km) Brightness Sun altitude
Exits shadow 03:41:52 11° 176° (S) 2,512 10.1 -28.5°
Maximum altitude 03:46:57 34° 115° (ESE) 1,433 9.3 -27.8°
Drops below altitude 10° 03:52:09 10° 52° (NE) 2,545 10.9 -27.0°
Sets 03:54:50 0° 44° (NE) 3,480 11.6 -26.7°
